Miscellaneous Local Product
Issued by NWS North Platte, NE

Home | Current Version | Previous Version | Text Only | Print | Product List | Glossary On
Versions: 1 2 3 4 5 6 7 8 9 10 11 12 13 14 15 16 17 18 19 20 21 22 23 24 25 26 27 28 29 30 31 32 33 34 35 36 37 38 39 40 41 42 43 44 45 46 47 48 49 50
941
AXUS43 KLBF 190610
MISLBF


WESTERN AND NORTH CENTRAL NEBRASKA HOURLY WEATHER ROUNDUP
NATIONAL WEATHER SERVICE NORTH PLATTE NE
1200 AM CST THU JAN 19 2017

NOTE: "FAIR" INDICATES FEW OR NO CLOUDS BELOW 12,000 FEET WITH NO
SIGNIFICANT WEATHER AND/OR OBSTRUCTIONS TO VISIBILITY.

NOTE: STATIONS NOT REPORTING VARIABLES SUCH AS SKY/WEATHER OR
PRESSURE ARE PROVIDED BY RAWS AND APRS NETWORKS AND ARE NOT UNDER
NATIONAL WEATHER SERVICE QUALITY CONTROL.

...OBSERVATIONS IN AND NEAR THE EASTERN PANHANDLE OF NEBRASKA...

CITY           SKY/WX    TMP DP  RH WIND       PRES   REMARKS
PINE RIDGE     CLOUDY    32  24  72 W8        29.60S WCI  25
CHADRON        CLOUDY    22  18  85 SW8       29.61R WCI  12
ALLIANCE       CLOUDY    21  18  88 S8        29.63F WCI  11
SIDNEY         CLOUDY    26  21  81 W10       29.66F WCI  16
CRESCENT LAKE    N/A     28  25  87 CALM        N/A
$$

...OBSERVATIONS IN NORTHERN NEBRASKA AND FAR SOUTHERN SOUTH DAKOTA...

CITY           SKY/WX    TMP DP  RH WIND       PRES   REMARKS
WINNER         FAIR      38  28  67 S8        29.64F WCI  32
VALENTINE      CLOUDY    33  26  75 SW8       29.65S WCI  26
THEDFORD       CLEAR     33  32  96 S6        29.69S WCI  28
AINSWORTH      CLEAR     34  32  93 S15       29.67F WCI  24
O`NEILL        CLEAR     38  36  94 S9        29.73F WCI  31
ORD            CLEAR     32  31  96 E3        29.75F FOG
BROKEN BOW     CLEAR     37  35  92 S8        29.73F WCI  31
VALENTINE NWR    N/A     31  27  85 S8          N/A  WCI  24
BUTTE            N/A     35  32  89 S10         N/A  WCI  27
HALSEY           N/A     35  32  89 S9          N/A  WCI  28
SARGENT          N/A     34  24  67 CALM        N/A
CHAMBERS         N/A     36  35  95 S3          N/A
EWING            N/A     39  37  92 S8          N/A  WCI  33
$$

...OBSERVATIONS IN SOUTHWEST NEBRASKA AND FAR NORTHEAST COLORADO...

CITY           SKY/WX    TMP DP  RH WIND       PRES   REMARKS
WRAY           FAIR      27  23  86 W6        29.68  WCI  20
HOLYOKE        FAIR      23  19  86 SW3       29.68F
IMPERIAL       CLOUDY    28  25  88 SE6       29.69F FOG     WCI  22
OGALLALA       CLOUDY    27  24  90 CALM      29.69F
NORTH PLATTE   CLEAR     36  34  92 S7        29.71F WCI  30
MCCOOK         FOG       29  28  96 E3        29.72F VSB 1/4
LEXINGTON      PTCLDY    36  34  94 SE9       29.74F WCI  29
STAPLETON        N/A     32  31  96 CALM        N/A
GOTHENBURG       N/A     35  33  91 CALM        N/A
CALLAWAY         N/A     33  31  93 S10         N/A  WCI  25
$$

...OBSERVATIONS IN CENTRAL LINCOLN COUNTY AREA...

CITY           SKY/WX    TMP DP  RH WIND       PRES   REMARKS
N.P. AIRPORT   CLEAR     36  34  92 S7        29.71F WCI  30
N.P. DOWNTOWN    N/A     36  34  93 SE3         N/A
N.P. SOUTHEAST   N/A     34  31  90 CALM        N/A
N.P. HILLCREST   N/A     36  34  92 SE5         N/A  WCI  32
$$

...SOME OBSERVATIONS FROM AROUND THE REGION...

CITY           SKY/WX    TMP DP  RH WIND       PRES   REMARKS
LARAMIE        CLOUDY    13  10  88 N7        29.79F WCI   3
CHEYENNE       CLOUDY    30  16  56 W10       29.68F WCI  21
DENVER         CLOUDY    34  17  50 SW9       29.68F WCI  27
AKRON          CLOUDY    30  18  60 SW9       29.66F WCI  22
SCOTTSBLUFF    CLOUDY    28  20  71 NW3       29.66R
RAPID CITY     CLOUDY    30  21  69 N9        29.57R WCI  22
BISMARCK       CLOUDY    20  14  77 SE8       29.59F WCI  10
PIERRE         CLOUDY    19  17  92 E5        29.59F WCI  12
SIOUX FALLS    CLEAR     38  37  97 SW6       29.77S WCI  33
OMAHA          CLEAR     37  32  82 SE13      29.87F WCI  29
GRAND ISLAND   CLEAR     37  35  92 S13       29.79F WCI  29
KANSAS CITY    CLOUDY    42  37  82 SE8       29.94F
WICHITA        MOCLDY    43  38  82 S10       29.87F
OKLAHOMA CITY  CLOUDY    47  45  93 S7        29.92F
DALLAS         CLOUDY    53  50  89 SW6       29.94F
AMARILLO       CLEAR     43  36  76 SW18      29.77F
DODGE CITY     CLOUDY    44  43  96 S16       29.78F FOG
HAYS           CLOUDY    43  42  97 S14       29.79F
GOODLAND       CLEAR     36  30  79 S8        29.69F WCI  30
$$




USA.gov is the U.S. government's official web portal to all federal, state and local government web resources and services.